TimeCDT,TemperatureF,Dew PointF,Humidity,Sea Level PressureIn,VisibilityMPH,Wind Direction,Wind SpeedMPH,Gust SpeedMPH,PrecipitationIn,Events,Conditions,WindDirDegrees,DateUTC
12:55 AM,60.1,46.9,62,29.77,10.0,SSE,11.5,-,N/A,,Clear,150,2013-09-23 05:55:00
1:55 AM,60.1,46.9,62,29.77,10.0,SSE,10.4,-,N/A,,Clear,150,2013-09-23 06:55:00
2:55 AM,57.9,46.9,67,29.75,10.0,SE,9.2,-,N/A,,Clear,140,2013-09-23 07:55:00
3:55 AM,55.9,46.9,72,29.74,10.0,SE,8.1,-,N/A,,Clear,140,2013-09-23 08:55:00
4:55 AM,57.9,46.9,67,29.73,10.0,SSE,15.0,-,N/A,,Clear,160,2013-09-23 09:55:00
5:55 AM,57.9,46.9,67,29.75,10.0,SSE,16.1,-,N/A,,Clear,160,2013-09-23 10:55:00
6:55 AM,57.9,46.9,67,29.75,10.0,SSE,12.7,19.6,N/A,,Clear,150,2013-09-23 11:55:00
7:55 AM,59.0,48.0,67,29.73,10.0,SSE,19.6,28.8,N/A,,Clear,160,2013-09-23 12:55:00
8:55 AM,63.0,48.0,58,29.75,10.0,South,18.4,28.8,N/A,,Clear,170,2013-09-23 13:55:00
9:55 AM,68.0,48.0,49,29.73,10.0,South,21.9,34.5,N/A,,Clear,170,2013-09-23 14:55:00
10:55 AM,72.0,48.9,44,29.72,10.0,South,21.9,35.7,N/A,,Clear,170,2013-09-23 15:55:00
11:55 AM,75.0,48.9,40,29.73,10.0,South,20.7,34.5,N/A,,Clear,170,2013-09-23 16:55:00
12:55 PM,78.1,48.0,35,29.70,10.0,SSE,23.0,34.5,N/A,,Clear,150,2013-09-23 17:55:00
1:55 PM,75.0,46.9,37,29.67,10.0,SSE,25.3,39.1,N/A,,Clear,160,2013-09-23 18:55:00
2:07 PM,75.2,46.4,36,29.69,10.0,SSE,25.3,34.5,N/A,Thunderstorm,Partly Cloudy,160,2013-09-23 19:07:00
2:22 PM,77.0,48.2,36,29.68,10.0,SSE,26.5,36.8,N/A,,Partly Cloudy,150,2013-09-23 19:22:00
2:55 PM,75.0,46.9,37,29.65,10.0,SSE,26.5,33.4,N/A,,Mostly Cloudy,150,2013-09-23 19:55:00
3:55 PM,79.0,46.9,32,29.63,10.0,SE,26.5,40.3,N/A,,Partly Cloudy,140,2013-09-23 20:55:00
4:55 PM,78.1,46.0,32,29.61,10.0,SSE,32.2,40.3,N/A,,Clear,160,2013-09-23 21:55:00
5:55 PM,75.9,46.9,36,29.61,10.0,SSE,27.6,40.3,N/A,,Clear,150,2013-09-23 22:55:00
6:55 PM,75.0,48.9,40,29.60,6.0,SSE,23.0,31.1,N/A,,Haze,150,2013-09-23 23:55:00
7:55 PM,73.0,48.9,42,29.61,10.0,SSE,24.2,32.2,N/A,,Overcast,150,2013-09-24 00:55:00
8:55 PM,73.0,48.9,42,29.62,10.0,SSE,21.9,31.1,N/A,,Overcast,160,2013-09-24 01:55:00
9:55 PM,71.1,46.9,42,29.65,10.0,West,9.2,-,0.00,,Overcast,280,2013-09-24 02:55:00
10:55 PM,66.0,50.0,56,29.67,10.0,WSW,5.8,-,N/A,,Partly Cloudy,250,2013-09-24 03:55:00
11:55 PM,63.0,51.1,65,29.67,10.0,SW,6.9,-,N/A,,Clear,230,2013-09-24 04:55:00